Kezdőlap
METAR-TAF:

METAR-TAF

Repülőterek :

Menomonie Municipal Airport (Score Field)

Menomonie, Wisconsin, Amerikai Egyesült Államok

földrajzi szélesség: 44-53-32N, földrajzi hosszúság: 091-52-04W, magasság: 273 m

Jelenlegi meteorológiai megfigyelések

A jelentés 19 perccel ezelõtt készült, 16:35 UTC
Dél-délkeleti szél 6 kt
Hőmérséklet 24°C
Páratartalom 65%
Légköri nyomás 1018 hPa
Látótávolság: 16.1 km
Derült ég

METAR: KLUM 131635Z AUTO 16006KT 10SM CLR 24/17 A3006 RMK AO2 T02410174

Idő: 11:54 (16:54 UTC)


TAF: hiányzik

Meteorológiai megfigyelések és előrejelzések több, mint 4000 repülőtéren (METAR és TAF jelentéseket).

A térképen piros és sárga pontok jelzik az elérhető meteorológiai állomásokat.

Mozgassa az egeret a pont fölött, hogy megjelenjen az állomás neve.

Azután kattintson az időjárási megfigyelések és előrejelzések megtekintéséhez.

A térkép megváltoztatása: kattintson a fekete keresztel jelölt zöld gombra ráközelítéshez, a vonallal jelölt zöld gombra távolításhoz, vagy a zöld nyilakra a szomszédos térképek eléréséhez.


METAR-TAF: